User: anonymous   Login
Location: Unspecified
(0.0000°N, 0.0000°E)
Time: 06:48:06
(UTC+00:00)
Language:

STUDSAT - Orbit

View from above orbital plane
View from above orbital plane
View from above satellite
View from above satellite

Ground track
Ground track

The orbit data is extracted from the following two-line orbital elements,

1 36796U 10035B   17087.88836629 +.00000626 +00000-0 +76117-4 0  9993
2 36796 098.0200 200.1692 0011718 239.7088 120.2969 14.87037452363414
Epoch (UTC): 28 March 2017 21:19:14
Eccentricity: 0.0011718
inclination: 98.0200°
perigee height: 599 km
apogee height: 615 km
right ascension of ascending node: 200.1692°
argument of perigee: 239.7088°
revolutions per day: 14.87037452
mean anomaly at epoch: 120.2969°
orbit number at epoch: 36341

The dashed part of the orbit path shows where the satellite is in the earth's shadow,  

DLR